Probability
0 0 0 0 0 0 0 0 0 0 0 0 0 0 0 0 0 0 0 0 0 0 0 0 0 0 1 2 2 2 2 2 1 0 0 0 0 0 0 0 0 0 0 0
0 0 0 0 0 0 0 0 0 0 0 0 0 0 0 0 0 0 0 0 0 0 0 0 0 0 0 1 1 1 1 1 0 0 0 0 0 0 0 0 0 0 0 0
0 0 0 0 0 0 0 0 0 0 0 0 0 0 0 0 0 0 0 0 0 0 0 0 0 0 0 0 0 0 0 0 0 0 0 0 0 0 0 0 0 0 0 0
0 0 0 0 0 0 0 0 0 0 0 0 0 0 0 0 0 0 0 0 0 0 0 0 0 0 0 0 0 0 0 0 0 0 0 0 0 0 0 0 0 0 0 0
0 0 0 0 0 0 0 0 0 0 0 0 0 0 0 0 0 0 0 0 0 0 0 0 0 0 0 0 0 0 0 0 0 0 0 0 0 0 0 0 0 0 0 0
0 0 0 0 0 0 0 0 0 0 0 0 0 0 0 0 0 0 0 0 0 0 0 0 0 0 0 0 0 0 0 0 0 0 0 0 0 0 0 0 0 0 0 0
0 0 0 0 0 0 0 0 0 0 0 0 0 0 0 0 0 0 0 0 0 0 0 0 0 0 0 0 0 0 0 0 0 0 0 0 0 0 0 0 0 0 0 0
0 0 0 0 0 0 0 0 0 0 0 0 0 0 0 0 0 0 0 0 0 0 0 0 0 0 0 0 0 0 0 0 0 0 0 0 0 0 0 0 0 0 0 0
0 0 0 0 0 0 0 0 0 0 0 0 0 0 0 0 0 0 0 0 0 0 0 0 0 0 0 0 0 0 0 0 0 0 0 0 0 0 0 0 0 0 0 0
0 0 0 0 0 0 0 0 0 0 0 0 0 0 0 0 0 0 0 0 0 0 0 0 0 0 0 0 0 0 0 0 0 0 0 0 0 0 0 0 0 0 0 0
0 0 0 0 0 0 0 0 0 0 0 0 0 0 0 0 0 0 0 0 0 0 0 0 0 0 0 0 0 0 0 0 0 0 0 0 0 0 0 0 0 0 0 0
0 0 0 0 0 0 0 0 0 0 0 0 0 0 0 0 0 0 0 0 0 0 0 0 0 0 0 0 0 0 0 0 0 0 0 0 0 0 0 0 0 0 0 0
0 0 0 0 0 0 0 0 0 0 0 0 0 0 0 0 0 0 0 0 0 0 0 0 0 0 0 0 0 0 0 0 0 0 0 0 0 0 0 0 0 0 0 0
0 0 0 0 0 0 0 0 0 0 0 0 0 0 0 0 0 0 0 0 0 0 0 0 0 0 0 0 0 0 0 0 0 0 0 0 0 0 0 0 0 0 0 0
0 0 0 0 0 0 0 0 0 0 0 0 0 0 0 0 0 0 0 0 0 0 0 0 0 0 0 0 0 0 0 0 0 0 0 0 0 0 0 0 0 0 0 0
0 0 0 0 0 0 0 0 0 0 0 0 0 0 0 0 0 0 0 0 0 0 0 0 0 0 0 0 0 0 0 0 0 0 0 0 0 0 0 0 0 0 0 0
0 0 0 0 0 0 0 0 0 0 0 0 0 0 0 0 0 0 0 0 0 0 0 0 0 0 0 0 0 0 0 0 0 0 0 0 0 0 0 0 0 0 0 0
0 0 0 0 0 0 0 0 0 0 0 0 0 0 0 0 0 0 0 0 0 0 0 0 0 0 0 0 0 0 0 0 0 0 0 0 0 0 0 0 0 0 0 0
0 0 0 0 0 0 0 0 0 0 0 0 0 0 0 0 0 0 0 0 0 0 0 0 0 0 0 0 0 0 0 0 0 0 0 0 0 0 0 0 0 0 0 0
0 0 0 0 0 0 0 0 0 0 0 0 0 0 0 0 0 0 0 0 0 0 0 0 0 0 0 0 0 0 0 0 0 0 0 0 0 0 0 0 0 0 0 0
0 0 0 0 0 0 0 0 0 0 0 0 0 0 0 0 0 0 0 0 0 0 0 0 0 0 0 0 0 0 0 0 0 0 0 0 0 0 0 0 0 0 0 0
0 0 0 0 0 0 0 0 0 0 0 0 0 0 0 0 0 0 0 0 0 0 0 0 0 0 0 0 0 0 0 0 0 0 0 0 0 0 0 0 0 0 0 0
0 0 0 0 0 0 0 0 0 0 0 0 0 0 0 0 0 0 0 0 0 0 0 0 0 0 0 0 0 0 0 0 0 0 0 0 0 0 0 0 0 0 0 0
0 0 0 0 0 0 0 0 0 0 0 0 0 0 0 0 0 0 0 0 0 0 0 0 0 0 0 0 0 0 0 0 0 0 0 0 0 0 0 0 0 0 0 0
0 0 0 0 0 0 0 0 0 0 0 0 0 0 0 0 0 0 0 0 0 0 0 0 0 0 0 0 0 0 0 0 0 0 0 0 0 0 0 0 0 0 0 0
0 0 0 0 0 0 0 0 0 0 0 0 0 0 0 0 0 0 0 0 0 0 0 0 0 0 0 0 0 0 0 0 0 0 0 0 0 0 0 0 0 0 0 0
0 0 0 0 0 0 0 0 0 0 0 0 0 0 0 0 0 0 0 0 0 0 0 0 0 0 0 0 0 0 0 0 0 0 0 0 0 0 0 0 0 0 0 0
Wind_Speed
7 4 2 6 8 9 11 11 11 12 13 15 9 8 6 5 5 4 5 5 4 4 4 3 3 3 3 3 3 2 3 3 3 2 2 2 1 1 1 1 1 1 1 1
5 3 4 8 10 12 13 12 13 13 17 13 8 4 5 6 6 7 7 6 6 5 5 5 4 4 3 3 3 3 4 3 2 2 2 2 2 1 1 1 1 1 2 2
6 3 3 11 12 14 10 10 10 15 17 7 5 6 7 7 7 8 8 7 6 6 6 5 4 4 4 4 3 3 3 3 2 2 2 2 2 2 2 2 2 2 2 2
2 0 10 10 5 10 11 12 12 11 9 6 8 6 6 6 8 8 8 7 7 5 5 3 3 3 3 2 3 3 3 3 3 3 3 2 3 3 3 2 2 2 2 2
3 6 11 9 4 7 8 10 11 13 12 8 4 3 6 6 7 8 7 6 5 4 3 3 3 3 2 2 3 3 4 4 3 3 3 3 4 4 3 2 2 2 2 2
4 5 10 8 4 4 4 8 6 9 10 6 2 3 8 3 4 5 4 3 3 2 2 3 3 2 3 3 4 5 5 4 3 3 4 4 4 3 2 2 3 2 2 2
7 8 12 7 3 6 5 8 3 6 7 6 7 8 5 2 3 4 3 3 2 2 3 3 3 3 4 4 5 5 3 2 3 3 4 4 3 2 2 2 2 2 2 2
7 7 13 5 7 10 9 2 2 3 4 5 7 6 5 4 4 3 3 2 3 3 3 3 3 4 4 5 4 2 2 3 3 3 3 3 3 2 2 3 3 2 2 2
12 11 4 7 8 6 3 3 4 4 4 5 6 6 6 5 4 4 4 3 3 3 3 2 3 4 5 4 2 2 2 3 3 3 3 3 3 3 3 3 3 3 3 3
7 10 6 7 6 5 4 5 5 4 4 4 6 6 6 5 4 3 3 3 2 3 3 3 2 3 4 3 2 3 3 3 3 3 3 3 3 3 4 4 4 4 4 3
9 9 6 7 8 8 6 4 4 4 4 5 5 6 5 5 4 4 3 2 2 3 4 4 3 3 3 3 3 3 3 3 3 3 3 3 3 3 4 4 5 5 4 4
11 7 6 7 5 5 6 6 5 5 5 4 4 5 4 4 3 3 3 2 2 3 3 3 3 3 3 3 4 4 3 3 3 3 3 3 2 2 4 5 6 7 6 5
8 5 6 6 4 3 4 5 5 5 5 5 4 3 3 3 2 2 2 2 3 4 4 3 3 4 3 3 3 4 4 4 3 3 3 3 3 3 2 3 4 5 5 6
4 3 5 5 5 4 4 4 3 3 3 3 3 2 2 2 2 3 4 3 3 3 3 3 4 5 3 3 3 4 4 4 4 3 3 3 3 3 3 3 2 2 3 5
5 5 6 5 4 4 3 2 2 3 3 3 2 2 2 3 4 4 3 2 2 3 4 4 4 5 2 3 4 4 3 3 3 3 3 3 3 3 3 3 3 2 2 2
5 4 4 4 5 5 3 3 4 5 4 3 3 3 3 3 3 3 3 2 3 4 5 4 5 4 3 3 3 3 3 4 3 3 3 3 3 3 3 3 3 3 3 2
2 4 4 5 6 6 5 5 5 5 4 3 3 2 2 2 2 3 3 3 4 5 5 5 5 3 3 3 4 3 3 3 3 3 3 3 3 4 4 3 3 3 3 4
5 6 5 5 6 6 5 4 3 3 4 4 3 2 2 2 3 4 3 2 2 4 4 4 3 2 3 3 3 3 3 3 3 3 3 3 3 3 3 4 4 4 2 2
4 4 4 4 4 4 4 3 3 3 2 2 2 2 2 3 3 3 2 2 3 4 4 2 2 1 2 3 3 2 3 2 2 2 2 3 3 3 3 3 4 3 3 2
2 3 3 3 3 2 3 2 2 2 1 1 1 1 2 3 2 2 2 3 4 3 2 2 2 2 2 2 2 2 3 3 3 2 2 3 3 3 3 3 3 3 3 3
2 3 3 2 2 2 2 2 1 1 2 1 1 2 2 3 2 1 1 3 3 2 2 2 1 1 1 2 2 2 2 3 3 3 3 3 3 3 3 3 3 3 3 3
2 2 2 2 2 2 2 1 1 1 1 1 1 1 1 2 2 2 2 3 3 2 2 2 1 2 2 2 2 2 2 3 3 3 3 3 3 3 3 3 3 3 3 3
2 2 2 1 1 2 2 2 1 1 1 2 2 2 2 2 2 1 3 2 2 3 2 2 2 4 3 1 2 2 3 3 3 3 3 3 3 4 3 4 3 3 3 3
1 1 1 1 1 1 2 2 2 2 2 2 2 2 2 2 2 2 2 3 3 4 3 3 4 4 3 1 1 2 2 3 3 3 3 3 3 3 3 3 3 3 3 4
1 1 1 1 1 1 1 2 2 2 2 2 3 3 2 1 2 2 2 3 4 4 3 4 4 4 2 1 1 2 2 3 3 3 3 3 3 3 3 3 3 3 3 3
1 1 1 1 1 1 1 1 1 2 2 2 3 3 2 2 2 2 2 2 3 3 3 2 2 2 1 1 2 2 2 2 2 2 3 3 3 3 3 3 4 3 3 3
1 1 1 2 2 1 1 1 1 2 2 2 3 3 2 2 2 2 2 2 2 2 2 2 2 2 1 1 1 1 2 2 2 2 2 3 3 3 3 4 3 3 3 3
Wind_Direction
252 263 219 228 223 201 208 216 224 243 244 256 249 247 253 257 261 261 259 251 243 241 243 239 235 227 215 216 214 204 198 206 215 212 205 199 198 205 214 215 228 229 231 244
268 256 253 263 242 223 227 231 239 258 265 258 258 253 252 253 254 256 257 253 247 242 238 237 235 230 223 221 216 203 205 214 213 199 204 206 208 205 206 221 230 221 221 221
260 276 306 262 226 210 212 211 207 234 249 257 257 246 241 240 243 243 250 254 249 238 233 232 229 220 220 222 209 204 212 215 205 202 212 217 215 204 207 217 223 227 231 232
235 164 240 245 190 198 217 233 221 235 252 245 243 253 247 230 231 243 246 247 245 236 230 227 219 211 217 209 200 207 214 217 213 210 219 221 213 214 215 212 214 228 235 242
184 235 268 282 220 184 201 253 226 229 245 255 273 308 279 242 221 230 236 237 236 229 218 214 211 199 195 209 206 211 219 222 220 213 217 218 221 220 218 211 218 227 231 230
188 217 243 250 200 171 142 269 237 211 231 238 173 257 270 263 231 240 242 230 221 208 193 209 215 190 198 213 213 223 227 227 223 216 215 221 227 228 222 214 220 227 238 235
211 234 257 247 174 133 184 247 235 203 215 202 201 228 258 273 251 238 233 226 204 190 202 216 202 185 215 223 229 234 231 224 223 219 220 221 226 225 207 212 208 220 238 248
184 217 249 193 149 187 219 254 224 216 208 211 235 255 267 265 257 246 239 226 200 203 229 228 200 189 217 231 235 227 211 213 217 218 221 215 205 210 197 192 202 214 228 253
200 220 248 177 200 218 209 234 238 226 231 226 244 257 264 263 256 245 239 235 214 204 232 246 217 197 219 236 219 202 207 217 217 216 216 211 203 203 197 194 204 216 218 238
246 257 253 244 255 253 231 233 240 239 245 232 241 254 260 259 254 247 246 237 218 203 225 251 241 220 224 232 203 190 208 221 215 208 213 207 207 203 202 203 209 215 218 229
250 264 280 257 236 240 239 240 254 259 249 241 245 256 250 253 252 244 244 238 219 218 233 247 249 245 234 218 191 196 211 217 216 212 209 210 211 213 217 220 217 217 218 217
236 235 228 253 250 237 239 248 252 257 266 261 243 247 250 248 247 242 242 238 232 234 237 246 246 253 244 210 187 189 210 215 212 208 202 201 208 247 251 248 252 251 250 247
247 264 247 264 286 262 240 254 255 248 252 265 263 247 243 251 252 246 248 240 237 242 246 250 251 255 247 212 192 197 210 216 209 203 198 198 199 205 243 263 252 249 251 254
265 281 268 266 273 285 268 265 265 265 267 262 264 266 252 250 252 244 246 246 241 246 253 250 250 258 245 207 198 207 212 216 210 204 200 199 200 203 204 213 236 253 255 257
263 249 249 278 295 300 297 294 283 273 277 286 268 250 236 238 249 257 262 257 241 248 254 249 252 260 233 200 201 207 207 212 205 197 195 195 195 196 200 206 216 235 265 263
280 273 268 280 286 292 298 280 262 263 261 266 269 262 259 256 266 274 270 240 231 249 253 248 252 252 217 203 201 205 211 214 200 186 186 191 193 196 202 204 208 216 229 238
253 265 269 280 281 282 273 266 264 265 268 261 264 274 277 276 279 280 276 256 246 253 252 248 252 245 216 206 201 204 202 204 194 185 194 198 198 202 203 202 208 219 230 231
236 245 247 254 265 268 272 273 269 266 266 271 278 271 256 252 265 280 288 293 288 282 267 250 243 234 219 211 202 198 195 198 192 195 198 199 202 203 200 202 208 217 232 237
258 265 273 276 278 271 269 272 272 272 274 267 258 257 259 259 261 274 286 282 277 280 283 266 262 245 236 225 203 187 188 191 192 195 196 199 202 204 203 204 208 213 216 218
278 287 287 291 299 286 277 287 289 289 282 258 254 269 282 282 276 274 267 261 255 253 272 283 276 255 245 237 216 183 188 193 196 198 198 202 207 211 209 209 210 213 213 215
289 294 295 294 300 304 293 285 277 285 296 274 237 247 265 287 287 270 270 288 290 268 273 274 261 257 249 232 206 195 197 201 204 206 206 208 211 215 215 213 214 215 215 217
290 287 289 297 316 329 335 334 307 295 310 309 301 285 289 300 307 306 271 257 285 300 300 282 266 255 252 234 207 208 210 212 216 213 212 211 210 214 218 215 216 218 218 217
288 290 303 316 316 323 341 352 344 317 302 295 289 283 272 271 272 267 295 294 297 300 302 286 278 275 268 224 209 217 219 221 223 219 218 216 215 215 217 217 218 217 218 219
322 331 324 331 12 26 355 341 341 331 312 305 295 281 273 287 304 272 265 298 308 307 304 291 290 292 288 232 217 223 226 227 228 223 220 218 216 215 216 216 219 220 219 219
340 347 4 18 19 347 324 332 346 348 344 332 324 319 309 277 264 288 298 300 305 311 307 305 304 305 298 246 227 232 234 231 228 222 217 217 219 218 219 217 217 218 219 222
360 343 327 325 309 306 317 329 325 320 327 328 325 323 327 317 297 295 300 303 304 306 303 302 303 300 285 260 243 239 239 239 235 225 218 218 219 221 224 223 222 223 222 222
20 9 2 357 350 342 327 307 297 300 299 296 307 315 320 320 318 314 310 310 316 318 316 314 308 297 287 273 258 251 244 236 232 228 224 222 222 223 223 222 226 225 223 224